Погода в Унече

Россия / Брянская область     52°50′42″N   32°40′14″E
темп.,
°C
ветер,
м/с
пор.,
м/с
влажн.,
%
обл.,
%
осадки,
мм/ч
давл.,
гПа
погр.,
м
17 июня, чт
чт1700:00+14св410882 0.0 1018167
03:00+13всв48890 0.0 1020122
06:00+14св48880 0.0 1020163
09:00+19всв58730 0.0 1021484
12:00+22всв56612 0.0 10221577
15:00+23св55570 0.0 10221592
18:00+22св48660 0.0 1022567
21:00+17в49860 0.0 1023172
18 июня, пт
пт1800:00+14всв36910 0.0 102498
03:00+13всв4109493 0.0 1025175
06:00+14всв410929 0.0 1025222
09:00+19в587679 0.0 1025428
12:00+22в68630 0.0 10251111
15:00+23в67600 0.0 10251332
18:00+22в58710 0.0 1024677
21:00+18в48890 0.0 1024141
19 июня, сб
сб1900:00+15в37943 0.0 1025124
03:00+14в36950 0.0 1025111
06:00+15в36950 0.0 1026146
09:00+20в56795 0.0 1025470
12:00+23вюв56682 0.0 10241103
15:00+24вюв56625 0.0 10231366
18:00+24вюв367168 0.0 10221206
21:00+19юв36900 0.0 1023110
20 июня, вс
вс2000:00+17вюв37940 0.0 1023136
03:00+15вюв36950 0.0 1023103
06:00+16вюв37932 0.0 1023165
09:00+20в567757 0.0 1022439
12:00+23вюв566556 0.0 1022916
15:00+25вюв466190 0.0 10201106
18:00+25вюв3670100 0.0 1019742
21:00+20вюв4888100 0.0 1020169
21 июня, пн
пн2100:00+19в41082100 0.0 1019240
03:00+17в499099 0.0 1019174
06:00+17в4108866 0.0 1018237
09:00+21в51078100 0.0 1017396
12:00+25в7116799 0.0 1016812
15:00+27вюв6106757 0.0 1015972
18:00+26вюв61170100 0.0 1015723
21:00+22вюв51288100 0.0 1015342